GFSFLT2_700_spd_030.txt.gz
Wind_Speed
5 7 10 12 11 8 6 7 7 7 9 9 8 10 11 12 14 14 15 16 17 18 19 19 19 18 17 16 16 15 14 15
9 11 11 9 7 6 8 8 8 9 9 9 10 12 14 14 15 17 17 17 17 18 19 20 21 21 22 21 20 20 18 17
10 15 9 8 4 7 8 8 7 9 10 12 15 15 16 14 16 17 18 19 20 20 21 22 23 23 23 23 23 24 22 22
12 9 7 7 9 6 4 6 6 7 8 12 16 16 17 20 21 19 21 20 21 22 21 23 25 25 27 25 23 25 24 25
10 5 6 6 6 6 8 8 9 9 10 12 17 18 20 21 23 25 25 25 26 25 24 23 23 24 24 28 29 28 27 27
14 4 5 6 6 4 1 3 7 12 17 18 19 20 21 23 23 24 24 26 26 25 26 25 26 24 23 23 24 26 26 27
14 6 7 7 6 5 5 8 11 15 19 22 20 20 21 24 25 26 27 28 29 29 28 28 29 30 32 30 25 25 27 27
11 13 7 8 9 9 11 13 16 19 22 22 21 23 25 27 28 30 30 31 32 31 30 29 28 28 27 30 32 28 26 27
13 17 13 12 14 14 15 20 21 23 25 26 26 28 28 28 29 30 30 30 30 30 31 31 29 27 29 32 34 32 30 28
13 16 24 16 18 22 23 25 25 26 29 30 30 31 29 28 29 30 31 33 33 33 32 30 31 32 36 40 41 41 40 39
12 16 22 25 23 24 27 27 28 29 31 27 33 35 32 34 35 36 37 38 37 35 35 36 38 39 41 43 43 44 45 45
24 23 23 27 28 29 29 31 32 32 32 32 36 38 40 38 38 38 39 44 46 44 45 46 46 46 47 45 44 45 44 44
22 26 27 28 26 28 29 32 33 31 33 37 39 42 42 45 48 51 46 45 46 46 49 49 48 46 45 47 45 43 43 43
21 19 17 20 25 28 29 31 32 33 36 41 44 47 48 47 51 52 50 48 45 43 43 44 44 41 41 42 46 46 44 43
17 21 24 24 28 32 31 32 35 37 38 41 44 46 48 53 54 52 50 47 45 41 40 41 45 44 44 47 49 53 53 50
22 27 29 29 29 33 35 35 37 38 40 43 47 48 53 53 51 50 49 47 46 44 46 48 50 52 54 55 55 55 57 60
25 28 31 34 31 30 33 36 37 40 44 48 50 50 47 47 48 45 45 47 49 51 54 56 57 59 58 58 58 54 48 48
28 30 29 31 35 32 34 35 38 41 43 44 45 45 44 42 42 45 48 51 53 55 58 59 59 57 52 49 51 54 54 49
32 32 29 30 31 36 41 43 41 40 39 40 41 41 40 42 45 50 54 56 57 56 53 49 47 45 43 40 39 39 40 42
30 30 30 35 40 41 41 38 36 37 38 39 39 42 47 51 53 55 55 54 52 47 40 41 39 38 36 36 36 33 34 35

GFSFLT2_700_spd_033.txt.gz
Wind_Speed
4 5 8 11 9 7 5 5 7 7 9 9 9 10 11 13 14 15 16 17 17 17 17 17 16 17 18 18 17 17 17 20
8 8 11 9 7 5 6 6 6 7 8 8 9 11 13 14 16 17 18 19 19 19 19 20 20 19 19 19 19 19 18 21
11 7 6 5 6 7 6 5 5 5 8 9 11 13 12 14 16 17 18 19 20 20 20 22 22 22 23 22 22 22 20 22
13 9 7 6 6 6 6 5 4 5 7 11 14 18 20 21 22 23 24 24 23 22 22 23 23 25 26 25 24 23 22 24
7 5 8 7 7 7 5 4 5 6 9 15 20 22 22 22 23 24 25 26 26 26 28 28 27 24 23 25 26 25 25 25
9 7 7 6 7 8 9 9 11 13 16 18 18 21 22 24 25 27 28 28 29 30 30 30 30 29 26 22 19 20 22 25
15 8 5 7 6 6 7 11 13 16 17 19 21 22 22 24 26 27 27 28 29 30 30 29 29 30 29 28 25 20 20 23
21 13 5 9 7 8 8 13 15 20 22 23 24 26 27 27 28 28 27 27 28 29 30 31 30 28 25 24 24 26 26 25
19 19 16 13 12 13 14 18 22 25 27 28 28 29 29 26 28 31 31 31 31 31 32 34 35 34 32 31 33 34 35 38
17 18 22 13 18 23 20 22 22 25 30 32 31 32 28 28 30 31 34 36 37 42 40 40 40 39 39 38 40 41 43 42
17 17 23 25 18 20 27 26 26 29 31 36 37 36 32 32 34 37 40 41 41 43 42 43 43 42 43 45 45 44 44 44
21 21 26 28 29 30 28 26 29 31 33 34 36 36 36 37 38 43 42 45 45 47 50 46 45 43 44 44 44 43 42 42
22 29 29 29 30 25 24 27 28 28 30 29 32 37 41 40 46 47 49 49 51 49 44 42 42 41 45 45 45 43 42 42
23 23 22 21 24 27 28 28 28 28 30 35 39 42 44 45 47 49 50 50 46 43 41 44 42 40 43 46 50 47 45 44
17 18 19 24 28 30 31 31 32 34 34 36 38 42 44 46 49 48 46 45 45 44 43 43 45 46 48 50 53 55 57 51
20 22 24 25 26 29 32 32 32 32 35 37 40 42 44 45 43 44 45 46 44 46 48 50 51 52 53 51 50 51 56 64
20 24 27 30 31 32 31 31 31 33 36 43 44 44 44 45 44 42 42 44 46 49 53 55 56 56 54 53 53 49 43 48
25 24 25 28 31 34 38 40 42 43 42 43 43 43 44 42 41 42 44 48 50 52 53 54 52 50 47 42 41 41 42 42
27 28 29 30 31 35 41 41 42 41 39 41 42 42 41 41 42 44 46 49 52 53 53 49 44 42 37 34 34 34 34 35
27 28 29 32 36 43 43 41 38 38 41 43 44 43 44 44 47 50 50 52 53 52 49 45 39 33 32 33 33 31 28 27

GFSFLT2_700_spd_036.txt.gz
Wind_Speed
7 4 5 9 9 5 3 4 4 6 7 8 9 10 12 13 15 16 17 17 18 18 17 17 17 17 17 18 19 20 20 17
5 6 8 9 5 3 5 5 5 6 6 6 8 12 14 15 16 17 18 19 20 20 19 19 18 18 18 17 17 18 20 20
6 8 9 7 5 5 5 5 5 5 5 6 8 10 14 18 19 20 20 20 21 20 20 20 21 21 20 19 18 17 17 18
10 10 6 4 5 5 4 4 5 5 6 7 10 14 18 20 21 22 23 23 23 23 22 22 23 21 20 20 19 18 18 19
4 5 4 3 4 2 2 4 4 5 7 11 14 17 19 20 22 24 25 24 24 24 24 23 22 22 20 20 19 21 21 19
9 7 7 5 5 3 4 4 6 10 13 16 19 21 22 22 22 23 23 24 24 24 23 24 24 24 25 25 24 22 20 19
16 13 11 8 7 8 9 11 13 14 16 20 21 22 23 23 23 24 24 24 25 25 25 26 28 28 26 26 27 26 22 22
19 15 10 10 8 12 18 19 19 20 20 22 22 23 25 26 26 25 25 27 28 29 32 33 33 32 30 32 31 30 31 31
15 14 16 11 9 15 17 17 22 24 26 25 25 25 27 26 25 25 29 30 31 34 36 38 39 37 38 38 37 36 37 36
11 16 18 13 12 13 12 18 26 28 27 28 29 28 27 27 28 31 35 35 39 39 40 42 43 43 45 40 38 39 40 41
16 18 18 17 16 19 25 26 25 27 30 32 31 32 32 31 34 36 38 38 42 42 43 46 47 47 46 42 38 38 39 41
20 19 20 20 22 23 25 23 26 28 30 30 33 34 37 39 39 40 39 42 43 45 47 47 47 47 45 44 42 40 39 39
18 20 24 27 25 23 21 24 28 29 32 34 35 35 38 39 41 44 45 47 48 49 48 45 42 44 47 46 44 41 41 41
26 30 28 21 18 21 23 25 26 27 30 32 36 39 40 42 44 46 47 48 47 45 44 45 44 44 46 48 51 48 46 46
23 21 20 21 23 26 27 27 29 30 33 36 37 38 40 42 45 46 46 45 45 44 43 43 44 46 48 50 53 56 58 54
19 21 24 28 30 28 25 24 24 27 31 35 40 42 43 43 43 43 44 45 46 45 46 48 50 51 51 51 51 53 56 61
25 26 29 29 28 28 29 33 39 41 40 39 40 42 42 42 44 45 45 45 46 48 49 50 51 52 52 51 49 46 45 45
21 25 25 26 28 29 30 36 42 44 45 44 42 40 40 41 41 43 45 46 46 48 50 50 51 50 48 45 43 41 38 37
23 27 32 34 36 39 44 46 49 51 50 45 40 39 40 41 44 44 44 47 48 50 51 48 45 44 39 35 33 30 30 34
31 35 36 39 43 44 51 50 51 50 44 40 41 43 45 47 47 46 47 50 52 50 46 43 39 35 34 32 30 31 34 35

GFSFLT2_700_spd_039.txt.gz
Wind_Speed
11 8 3 5 8 5 2 2 3 5 7 8 8 10 12 14 15 16 17 17 17 17 16 14 14 14 14 14 15 15 15 14
8 4 5 8 6 2 2 3 5 4 5 6 8 11 13 14 16 17 18 19 19 19 19 18 18 17 17 15 15 15 15 15
5 7 9 7 4 2 1 2 3 4 5 5 7 10 12 15 16 18 19 20 21 21 21 20 19 19 18 17 16 16 16 16
8 10 8 5 2 2 2 2 2 2 3 5 8 12 16 17 18 19 21 22 24 23 22 22 20 19 18 17 16 17 17 16
1 3 4 2 1 2 1 0 1 3 6 8 12 18 20 19 21 22 24 23 23 22 23 22 22 21 20 19 20 19 18 18
8 7 5 2 3 3 2 3 6 8 11 15 17 18 19 19 21 22 23 23 24 24 23 23 25 26 26 27 24 23 24 22
12 9 7 4 1 2 4 6 9 12 16 20 21 21 20 21 23 23 23 24 27 29 29 29 30 30 30 29 28 29 31 31
12 13 10 7 7 8 12 13 14 14 20 24 24 23 24 25 25 24 26 29 31 32 34 35 37 36 35 35 33 34 36 38
8 13 13 11 8 11 13 14 13 21 23 23 21 24 26 27 28 29 31 32 35 36 39 40 41 40 41 41 41 40 38 37
11 12 14 14 10 10 10 18 23 25 23 23 25 27 29 31 34 35 35 36 38 40 40 41 44 45 46 45 45 42 39 36
17 18 19 16 13 17 19 20 26 27 27 29 31 32 33 36 37 36 37 37 39 42 45 47 49 51 51 48 45 42 40 40
22 21 19 18 18 19 25 24 23 25 27 28 31 33 36 35 40 40 37 39 46 48 50 51 54 55 53 50 47 44 44 43
21 21 21 23 24 26 24 23 24 24 26 27 30 33 34 37 39 46 46 47 49 51 53 55 54 53 53 52 49 45 43 43
23 27 27 26 20 21 22 22 23 22 24 27 29 33 36 39 41 44 47 49 52 54 53 51 49 49 50 50 52 49 47 47
21 20 18 18 19 20 21 22 23 23 24 29 32 36 40 42 44 46 47 47 47 48 48 48 48 46 46 47 51 54 55 52
13 16 19 21 21 19 19 19 22 28 32 35 37 40 40 41 44 45 45 46 48 48 47 47 47 48 48 48 48 50 53 59
18 20 19 19 21 25 26 31 34 38 41 42 46 47 43 41 42 44 46 48 49 50 51 51 51 52 53 52 50 47 45 47
18 17 21 26 33 34 37 40 44 46 48 47 47 45 42 42 44 46 47 50 52 53 53 53 54 54 52 48 47 45 42 41
26 29 33 32 38 40 41 46 50 50 49 49 48 44 42 43 46 49 50 49 51 52 52 52 50 47 45 42 39 37 34 35
31 34 35 38 41 43 49 52 49 50 49 48 43 41 43 44 45 48 51 52 53 54 50 43 43 42 40 38 34 32 33 34

GFSFLT2_700_spd_045.txt.gz
Wind_Speed
13 11 9 5 2 4 3 5 6 7 8 8 7 7 6 7 8 9 10 12 14 17 19 19 18 18 17 15 13 13 13 12
13 11 7 2 3 3 5 7 8 8 8 7 5 4 5 8 9 10 12 14 16 17 19 20 21 20 18 17 16 15 13 13
13 9 4 3 3 5 6 7 8 8 6 4 2 3 6 9 10 11 13 15 17 19 20 21 20 19 18 19 19 19 17 15
7 4 5 4 4 7 8 9 9 6 3 0 3 7 10 11 12 13 14 17 19 20 20 20 20 21 22 22 22 21 21 20
4 5 6 8 10 10 10 10 8 5 3 3 6 9 12 14 13 14 17 19 20 21 21 21 22 23 24 25 26 26 25 23
8 10 11 12 12 13 13 11 8 5 5 6 8 13 15 16 17 18 20 22 23 23 23 23 24 26 27 29 29 30 30 29
10 9 8 10 13 13 12 9 7 6 7 9 12 15 18 18 20 22 24 25 25 25 25 26 28 30 31 32 33 33 34 35
5 5 7 10 11 11 9 6 6 6 11 15 15 18 18 20 23 26 27 27 26 29 30 30 29 32 34 36 35 37 39 39
8 9 11 11 11 11 12 9 7 8 23 23 18 21 20 23 26 29 31 33 31 33 28 32 39 39 39 42 45 44 43 43
15 18 19 19 17 18 19 11 13 17 17 17 20 21 23 26 27 29 30 36 32 35 36 41 37 46 47 47 48 47 48 49
20 23 23 24 25 24 27 20 8 12 14 17 21 26 28 30 31 32 34 34 37 40 42 44 46 48 49 50 51 51 50 49
22 26 31 30 30 14 15 8 7 11 15 19 23 26 27 28 30 33 36 37 40 43 45 48 50 52 53 53 51 50 47 47
26 28 23 19 8 5 5 7 8 11 14 18 21 24 27 31 35 37 39 40 41 42 44 46 47 50 52 52 51 52 50 48
18 20 9 10 7 10 11 12 13 15 17 20 23 28 33 36 34 35 37 40 42 43 44 46 48 50 52 54 54 54 53 52
5 4 6 7 8 10 11 14 17 20 25 29 34 37 38 39 40 40 42 42 42 42 43 45 47 48 49 50 53 55 56 51
3 9 11 12 12 12 16 19 24 29 34 38 40 40 42 43 44 44 44 44 45 45 46 48 48 49 50 50 50 52 50 51
13 15 17 20 19 19 23 27 31 36 41 42 42 43 44 43 44 45 46 47 49 48 47 47 48 47 47 44 39 37 33 34
24 28 23 21 23 23 27 32 34 40 42 42 43 43 43 44 45 46 49 49 48 46 46 46 44 40 36 35 33 31 32 36
16 18 20 22 30 28 31 34 38 42 41 41 42 43 44 45 47 48 48 47 48 47 46 45 43 40 34 34 36 34 35 36
20 24 27 27 28 30 36 39 42 40 40 41 43 45 46 46 47 47 48 49 48 46 43 40 39 37 33 34 34 34 35 37

GFSFLT2_700_spd_048.txt.gz
Wind_Speed
17 15 11 8 4 4 6 9 8 9 9 10 7 4 2 3 5 7 8 9 11 14 16 18 18 18 17 15 13 11 10 11
16 13 11 7 4 6 9 9 10 10 11 9 7 3 1 4 6 7 9 11 13 15 17 18 20 18 18 17 17 16 14 13
15 13 9 7 7 8 9 10 11 12 11 9 5 2 3 6 8 10 11 13 15 17 18 19 21 20 19 20 20 19 18 18
13 11 11 9 8 10 11 12 13 13 10 7 5 3 5 8 10 11 12 14 16 18 18 19 21 22 23 23 22 22 23 21
12 13 12 11 12 13 14 15 16 13 10 8 6 7 8 11 13 13 14 16 18 20 21 22 23 24 26 26 27 27 27 26
12 12 12 13 14 16 17 18 16 13 10 8 9 9 12 14 15 15 16 18 20 21 24 25 27 29 31 31 31 31 32 31
10 11 12 14 16 17 18 17 14 12 9 8 12 14 13 14 17 20 21 21 23 25 28 30 31 32 31 32 31 35 35 34
10 9 11 13 15 17 17 16 14 10 7 11 21 20 24 24 21 25 26 26 29 32 31 33 31 30 33 36 36 40 41 41
10 12 13 14 16 19 20 18 13 7 8 18 23 20 23 21 23 27 29 31 32 34 35 33 34 36 39 40 41 45 45 46
15 16 17 17 20 26 27 23 17 6 16 23 21 23 26 25 28 29 30 31 33 36 37 37 40 41 44 44 45 45 47 47
19 20 22 23 28 30 29 13 18 22 15 17 20 22 25 25 27 28 31 34 37 39 41 43 43 45 46 46 47 46 46 47
22 24 26 29 28 28 19 10 6 9 11 14 18 20 22 25 29 33 37 40 40 40 41 42 44 46 44 45 46 46 46 48
25 26 26 20 13 12 3 2 7 8 9 13 16 20 23 28 32 33 33 36 36 38 40 41 41 44 45 47 48 51 52 51
20 19 13 8 6 2 3 5 8 10 12 15 18 23 27 29 32 35 35 36 37 38 39 41 43 46 47 46 47 42 39 43
12 8 6 4 4 7 9 9 11 12 17 21 26 30 32 34 37 38 39 38 40 42 43 44 45 44 47 46 46 43 45 46
6 5 9 13 19 21 16 13 16 20 25 30 36 37 39 40 41 41 41 42 43 44 45 45 46 44 43 41 43 42 43 44
11 13 17 24 20 14 17 20 22 26 31 36 39 41 40 42 42 42 43 43 44 44 44 44 43 44 41 38 33 31 26 32
18 19 17 12 16 18 22 24 26 33 35 39 40 40 42 43 42 42 42 43 44 44 44 43 38 30 26 27 30 32 25 24
10 13 15 19 22 24 25 28 31 35 39 40 39 41 41 42 43 44 44 45 45 37 35 25 27 32 29 32 32 32 28 27
15 16 20 21 26 29 32 36 35 39 39 38 41 42 43 43 43 44 45 41 30 29 31 33 33 33 35 32 31 34 28 28

GFSFLT2_700_spd_051.txt.gz
Wind_Speed
18 17 14 13 9 7 6 7 8 8 9 9 9 7 3 1 4 6 7 8 9 11 13 15 17 19 19 17 15 13 11 12
19 16 14 11 8 7 7 9 10 10 12 11 9 6 3 3 6 7 8 9 11 13 14 16 18 20 21 21 20 18 15 13
18 16 13 9 6 7 8 9 11 13 13 11 9 7 5 8 9 10 11 12 14 15 17 17 19 21 22 22 23 22 20 19
17 13 10 8 7 8 10 12 13 13 13 11 10 8 8 11 10 11 13 14 16 18 19 20 20 20 21 29 27 27 25 25
14 12 9 9 10 11 13 14 15 15 13 12 10 9 11 11 13 14 15 16 19 21 23 22 25 25 27 30 29 29 28 29
11 12 12 13 14 15 15 16 17 15 13 11 9 10 13 13 13 13 16 21 23 23 22 27 29 30 32 31 31 28 29 32
11 12 12 13 14 15 18 17 18 17 13 11 10 11 16 14 15 20 27 20 27 27 29 32 31 34 32 33 31 35 38 37
9 10 11 13 14 15 18 20 20 18 15 12 12 19 20 22 26 22 23 25 29 31 34 31 34 34 35 36 38 38 40 41
9 9 11 14 17 20 21 23 23 19 13 8 12 24 23 22 28 26 25 30 33 33 35 35 38 39 40 40 42 43 43 45
14 14 16 16 18 21 24 27 23 16 24 24 24 33 31 25 26 27 30 32 31 33 36 39 40 41 42 43 44 43 43 43
17 18 18 22 21 25 23 28 30 29 19 31 22 24 22 24 27 27 29 33 35 37 37 39 42 41 42 44 43 44 44 44
20 21 21 23 26 29 22 13 23 23 10 16 18 18 20 22 27 29 32 34 35 39 38 38 39 41 42 43 43 44 44 48
22 23 25 24 23 14 11 3 4 6 10 12 15 19 19 22 29 32 33 35 38 39 38 39 40 41 45 46 46 44 41 41
27 26 20 15 11 9 6 5 7 9 11 14 15 19 22 27 28 31 33 33 37 37 37 39 40 42 43 46 48 44 41 29
15 12 10 6 4 7 13 14 11 12 15 20 21 25 29 32 33 33 37 39 39 42 42 43 42 43 42 43 43 42 40 37
11 10 10 10 12 16 11 10 8 15 20 24 29 30 35 36 37 39 40 41 42 43 42 42 43 42 39 33 32 33 32 37
9 13 16 20 20 13 12 15 17 22 24 28 34 37 42 42 42 42 42 42 42 41 41 41 39 39 32 32 32 26 26 27
16 19 16 12 14 16 18 22 24 24 27 31 37 38 39 42 43 44 44 43 40 38 38 36 38 32 29 27 31 30 31 34
15 15 14 14 17 19 21 24 27 31 33 33 36 37 38 40 42 42 41 41 40 39 32 31 34 32 30 32 35 35 35 33
14 16 18 20 21 24 27 29 30 34 38 36 35 36 38 41 43 44 43 41 40 38 32 31 35 36 35 35 36 34 32 34

GFSFLT2_700_spd_054.txt.gz
Wind_Speed
20 20 17 15 13 9 4 4 6 6 8 9 8 7 5 2 2 4 6 7 6 8 10 12 14 15 16 16 16 13 13 10
16 17 16 15 11 6 4 5 6 7 8 8 7 6 4 3 5 7 9 10 11 11 12 14 16 17 18 18 18 21 16 17
20 19 19 14 7 4 4 6 8 9 9 9 8 7 6 4 6 9 11 12 13 14 16 17 18 20 22 24 23 24 22 23
20 15 12 9 6 3 6 8 9 10 11 11 10 8 9 8 9 11 12 14 16 17 18 21 23 23 25 26 28 27 24 23
16 14 10 8 5 5 8 9 11 12 12 11 9 8 8 11 12 12 17 18 20 26 24 24 25 26 27 27 26 24 23 24
11 10 8 7 8 9 10 11 13 14 14 14 11 9 10 14 15 22 26 24 25 26 25 27 30 33 33 31 30 27 26 28
9 9 10 10 11 10 14 15 15 18 16 17 13 11 13 16 17 16 20 25 23 24 28 30 34 35 34 35 35 35 36 34
8 7 7 9 8 10 13 15 19 19 17 17 15 13 19 22 21 19 21 22 25 28 33 33 35 35 37 38 40 40 41 40
6 6 6 7 8 11 13 14 16 17 20 18 22 20 24 26 23 23 23 25 28 31 33 34 36 37 38 40 40 41 41 41
8 7 8 10 12 11 11 18 25 19 29 27 20 34 29 24 26 23 26 29 30 31 34 35 37 39 40 41 41 40 39 39
12 11 12 13 19 18 20 22 17 15 24 35 31 30 27 25 28 23 26 28 31 35 36 37 39 40 40 39 40 40 40 40
15 15 15 20 21 23 23 16 13 11 12 25 33 26 22 27 26 24 24 30 34 35 37 38 40 41 42 43 42 43 42 40
19 19 20 22 23 22 15 12 8 6 4 10 17 19 21 23 24 27 30 34 38 40 40 40 39 41 42 42 43 42 40 36
21 25 25 23 17 12 9 8 11 12 12 16 19 19 21 26 26 31 35 36 37 40 39 41 40 40 41 43 45 42 40 39
25 23 17 15 13 11 14 16 13 14 15 17 17 21 23 27 29 33 36 38 38 40 41 42 42 40 39 41 43 44 44 42
18 14 13 11 12 14 16 12 14 17 20 16 25 23 27 30 32 36 36 37 39 41 41 42 40 41 41 37 37 38 42 45
11 11 12 12 15 17 10 11 15 19 23 27 29 30 34 36 38 38 40 41 42 43 44 43 41 42 38 35 34 31 29 34
11 13 17 15 13 13 15 17 21 24 24 26 29 35 36 37 36 39 40 40 40 40 41 40 37 35 35 38 37 36 35 37
15 17 17 16 17 17 18 21 22 25 29 30 36 35 33 33 35 37 38 39 39 39 38 41 37 35 35 37 39 40 40 38
16 18 19 19 19 21 22 25 28 27 29 37 32 33 33 34 36 37 39 39 39 38 38 40 42 31 31 36 39 39 38 38

GFSFLT2_700_spd_057.txt.gz
Wind_Speed
27 25 18 17 16 12 8 5 6 9 10 9 10 9 8 6 2 2 4 5 5 7 8 10 11 13 15 16 16 13 16 17
22 20 17 15 13 10 7 5 9 9 10 10 10 10 7 5 2 4 7 8 9 10 11 13 14 15 16 18 18 16 20 21
24 20 16 19 14 8 4 5 8 8 9 9 10 8 7 5 5 7 10 12 14 12 13 15 15 16 19 22 22 21 23 23
23 21 20 11 7 4 2 3 6 8 9 9 11 10 9 7 8 10 12 13 15 13 17 20 17 19 24 25 25 23 22 24
19 13 9 6 5 2 3 3 6 8 10 12 11 12 12 10 10 14 14 19 23 23 28 24 25 27 28 27 24 23 23 25
15 15 10 9 5 7 8 7 9 13 12 11 11 11 10 11 16 16 17 15 19 23 22 24 26 29 33 33 33 33 31 31
13 8 8 9 10 8 7 6 9 10 11 13 13 13 13 16 18 16 15 19 22 21 21 25 28 29 31 34 34 35 36 35
9 9 8 3 5 10 12 10 9 10 12 14 17 18 19 19 19 21 21 20 21 21 22 27 30 32 33 33 36 39 39 38
6 3 4 7 9 7 6 8 11 10 14 18 21 24 23 23 24 22 21 20 21 23 25 30 32 33 35 37 39 38 37 36
5 3 3 2 4 6 8 12 15 16 22 25 28 28 24 23 24 27 25 25 26 25 27 30 32 36 37 37 38 37 37 37
1 3 6 5 7 10 13 15 17 17 17 20 24 30 31 36 28 29 28 29 30 29 31 34 37 38 39 37 37 37 38 37
4 7 12 12 14 16 18 19 13 13 13 12 14 24 28 32 33 27 29 32 33 34 34 37 40 41 40 41 40 40 40 40
11 12 14 15 18 20 19 14 11 8 10 11 11 15 24 26 26 28 29 31 33 33 39 39 37 39 40 39 39 38 38 39
17 18 15 21 23 20 15 12 11 15 11 11 13 15 19 24 26 27 28 28 31 36 37 37 38 38 39 40 41 37 37 37
19 20 21 23 20 14 14 15 19 17 13 14 16 21 21 23 24 28 30 32 34 34 36 37 37 36 37 39 42 44 43 38
21 24 23 18 13 17 18 19 19 16 17 16 19 17 25 26 29 33 33 34 36 37 38 39 39 39 39 39 38 41 45 48
21 17 15 14 20 19 18 18 20 20 21 22 25 27 29 32 35 33 34 35 36 38 39 40 40 40 40 41 42 41 39 42
16 17 17 17 16 16 16 19 19 21 22 23 25 27 34 39 36 39 39 38 39 39 39 40 40 40 38 39 41 41 39 39
18 16 14 14 16 18 18 20 21 23 26 27 31 30 35 36 35 34 35 36 37 38 38 38 40 42 41 38 38 39 35 40
16 17 16 16 16 18 19 21 24 26 28 37 38 35 34 36 33 33 33 36 37 38 37 38 40 41 41 39 39 38 34 38

GFSFLT2_700_spd_060.txt.gz
Wind_Speed
36 31 31 31 20 13 10 5 5 11 12 11 10 9 8 6 3 0 3 4 5 6 8 9 9 11 11 13 18 19 21 21
29 28 28 19 14 12 8 7 9 11 11 9 10 9 8 7 5 5 5 6 7 8 8 10 12 13 12 13 20 24 23 21
29 26 24 16 14 12 8 4 6 8 10 11 10 11 10 10 9 9 9 10 8 8 8 12 16 14 14 16 20 22 21 22
25 28 26 20 13 9 4 4 9 11 10 11 11 11 10 12 12 12 14 13 13 12 12 17 16 16 19 22 21 22 24 25
31 26 17 13 9 4 2 5 7 9 9 10 10 12 14 15 14 16 14 14 16 14 20 21 23 22 24 25 25 25 26 27
19 15 14 8 4 3 5 6 4 6 6 7 9 12 15 16 16 16 15 17 17 21 22 23 22 23 25 28 31 30 30 33
15 14 11 7 2 2 1 2 4 3 6 8 11 14 16 16 16 18 16 19 22 22 22 22 22 25 26 29 31 31 32 33
18 14 7 3 9 9 6 5 4 3 5 9 13 14 16 18 18 18 18 21 22 20 20 21 22 24 26 29 32 34 34 33
10 5 10 11 8 6 6 5 8 7 8 12 14 18 20 22 21 21 22 22 21 21 21 21 25 28 31 33 34 36 36 36
8 9 10 4 3 4 5 8 9 11 10 15 18 22 25 27 27 26 27 28 24 19 22 27 30 32 34 37 38 36 37 38
7 6 2 4 3 6 8 10 12 11 12 15 18 22 27 28 29 33 32 29 28 28 30 32 33 34 38 37 36 36 37 38
7 4 5 7 9 10 11 13 14 12 13 14 16 17 19 21 24 25 28 30 31 33 33 33 33 38 38 39 38 37 38 38
7 6 9 10 11 13 15 17 13 12 11 16 17 16 18 18 22 25 27 31 33 33 33 33 36 40 40 39 38 36 35 35
6 8 11 12 14 16 17 15 13 13 16 16 14 15 17 19 20 24 28 29 31 34 35 38 39 40 40 40 39 35 36 35
14 14 13 15 18 20 16 14 14 16 14 14 14 15 18 21 24 29 30 31 32 33 37 40 40 39 38 38 40 40 40 36
20 18 17 20 21 16 14 15 15 14 15 14 16 17 22 21 25 27 26 26 32 35 37 39 40 39 39 39 39 42 44 49
23 21 23 23 17 14 15 15 15 15 16 17 19 24 25 29 31 30 30 35 36 36 38 38 40 40 41 41 41 41 42 44
24 27 24 17 14 15 17 17 16 18 20 21 25 29 24 35 39 31 35 36 37 38 38 40 41 41 41 41 42 42 42 43
20 19 16 14 15 16 16 17 18 20 22 27 23 29 38 43 48 37 34 35 36 38 40 40 41 42 43 43 43 42 41 41
18 17 17 16 16 15 17 20 22 25 27 32 29 29 40 41 42 35 33 34 37 40 40 39 41 42 42 42 42 42 42 41